Погода в Сент-Джоне

Канада     45°16′26″N   66°03′52″W
темп.,
°C
ветер,
м/с
пор.,
м/с
влажн.,
%
обл.,
%
осадки,
мм/ч
давл.,
гПа
погр.,
м
14 апреля, ср
ср1400:00+2ссв6136999 0.0 10171067
03:000ссв5128568 0.0 1017669
06:00+1с6128373 0.0 1017594
09:00+2с6117987 0.0 1018688
12:00+8ссв57535 0.0 1017942
15:00+11ссв47438 0.0 10151259
18:00+9св47475 0.0 10141112
21:00+4ссв49624 0.0 1015320
15 апреля, чт
чт1500:000ссв37743 0.0 1015181
03:00−1с24762 0.0 101596
06:00−2с24763 0.0 1015100
09:00+4с23502 0.0 1016286
12:00+9в34410 0.0 1014905
15:00+10юв44483 0.0 1013803
18:00+10в46545 0.0 1012558
21:00+6всв4117019 0.0 1013238
16 апреля, пт
пт1600:00+4в488189 0.0 1014271
03:00+3всв488775 0.0 1012268
06:00+1в3791100 0.0 1012253
09:00+4в61173100 0.0 1013714
12:00+7в71063100 0.0 1012992
15:00+8в71058100 0.0 10101152
18:00+7в61176100 0.0 1010907
21:00+5в71387100 0.3 1010857
17 апреля, сб
сб1700:00+4в71592100 2.1 1008790
03:00+4всв81593100 3.7 1007675
06:00+4всв71494100 5.4 1006728
09:00+4всв61195100 11.3 1005777
12:00+5всв61095100 4.2 1005831
15:00+4св6996100 5.3 1005615
18:00+4св4996100 0.1 1005714
21:00+3ссв4897100 0.2 1007489
18 апреля, вс
вс1800:00+2с4997100 0.2 1007394
03:00+1с4997100 0.6 1007627
06:00+1с4896100 0.3 1007626
09:00+1с4997100 0.4 1008541
12:00+2с4890100 0.3 1008828
15:00+3с4788100 0.3 1008769
18:00+5ссз257998 0.1 1008677
21:00+4зсз2590100 0.1 1009150